EN

Hourly Weather Ochetovo

Today, 18 May, Tuesday

Time Temperature Precipitation Wind Pressure Humidity
00:00 +17°C° 0 mm 4 mps 731 mmHg 88%
01:00 +16°C° 0 mm 3 mps 731 mmHg 91%
02:00 +16°C° 0 mm 3 mps 731 mmHg 94%
03:00 +15°C° 0.1 mm 4 mps 731 mmHg 94%
04:00 +15°C° 0.1 mm 4 mps 731 mmHg 94%
05:00 +15°C° 0.1 mm 4 mps 731 mmHg 95%
06:00 +16°C° 0 mm 5 mps 731 mmHg 90%
07:00 +19°C° 0 mm 5 mps 731 mmHg 86%
08:00 +20°C° 0 mm 6 mps 731 mmHg 82%
09:00 +21°C° 0 mm 6 mps 731 mmHg 78%
10:00 +21°C° 0 mm 5 mps 731 mmHg 75%
11:00 +22°C° 0 mm 5 mps 731 mmHg 71%
12:00 +21°C° 0.9 mm 5 mps 731 mmHg 77%
13:00 +19°C° 0.9 mm 4 mps 731 mmHg 82%
14:00 +18°C° 0.9 mm 4 mps 731 mmHg 88%
15:00 +19°C° 0.6 mm 4 mps 731 mmHg 86%
16:00 +19°C° 0.6 mm 4 mps 731 mmHg 84%
17:00 +20°C° 0.6 mm 5 mps 731 mmHg 82%
18:00 +17°C° 0.9 mm 5 mps 730 mmHg 85%
19:00 +17°C° 0.9 mm 4 mps 730 mmHg 88%
20:00 +15°C° 0.9 mm 4 mps 730 mmHg 91%
21:00 +14°C° 0 mm 4 mps 730 mmHg 93%
22:00 +14°C° 0 mm 3 mps 730 mmHg 94%
23:00 +13°C° 0 mm 3 mps 730 mmHg 96%

Tomorrow, 19 May, Wednesday

Time Temperature Precipitation Wind Pressure Humidity
00:00 +13°C° 0 mm 4 mps 730 mmHg 96%
01:00 +13°C° 0 mm 4 mps 730 mmHg 96%
02:00 +13°C° 0 mm 4 mps 730 mmHg 97%
03:00 +13°C° 0 mm 4 mps 730 mmHg 97%
04:00 +13°C° 0 mm 4 mps 730 mmHg 97%
05:00 +13°C° 0 mm 4 mps 731 mmHg 97%
06:00 +14°C° 0 mm 4 mps 731 mmHg 92%
07:00 +15°C° 0 mm 5 mps 731 mmHg 87%
08:00 +16°C° 0 mm 5 mps 732 mmHg 82%
09:00 +17°C° 0.1 mm 5 mps 732 mmHg 77%
10:00 +19°C° 0.1 mm 5 mps 732 mmHg 72%
11:00 +20°C° 0.1 mm 5 mps 732 mmHg 67%
12:00 +20°C° 0 mm 5 mps 732 mmHg 63%
13:00 +21°C° 0 mm 5 mps 732 mmHg 59%
14:00 +22°C° 0 mm 5 mps 732 mmHg 55%
15:00 +21°C° 0.2 mm 4 mps 732 mmHg 61%
16:00 +21°C° 0.2 mm 3 mps 732 mmHg 66%
17:00 +20°C° 0.2 mm 3 mps 732 mmHg 72%
18:00 +18°C° 0.5 mm 2 mps 732 mmHg 78%
19:00 +17°C° 0.5 mm 2 mps 732 mmHg 84%
20:00 +15°C° 0.5 mm 1 mps 733 mmHg 91%
21:00 +15°C° 0.1 mm 1 mps 733 mmHg 92%
22:00 +14°C° 0.1 mm 1 mps 733 mmHg 94%
23:00 +14°C° 0.1 mm 1 mps 732 mmHg 95%

Day after tomorrow, 20 May, Thursday

Time Temperature Precipitation Wind Pressure Humidity
00:00 +13°C° 0.1 mm 1 mps 732 mmHg 96%
01:00 +13°C° 0.1 mm 2 mps 732 mmHg 97%
02:00 +13°C° 0.1 mm 2 mps 732 mmHg 97%
03:00 +13°C° 0.3 mm 2 mps 732 mmHg 97%
04:00 +12°C° 0.3 mm 3 mps 732 mmHg 97%
05:00 +12°C° 0.3 mm 3 mps 731 mmHg 97%
06:00 +13°C° 0.4 mm 3 mps 731 mmHg 95%
07:00 +14°C° 0.4 mm 3 mps 731 mmHg 94%
08:00 +16°C° 0.4 mm 2 mps 731 mmHg 92%
09:00 +16°C° 0.6 mm 2 mps 731 mmHg 90%
10:00 +17°C° 0.6 mm 2 mps 730 mmHg 88%
11:00 +17°C° 0.6 mm 2 mps 730 mmHg 86%
12:00 +17°C° 1 mm 3 mps 730 mmHg 87%
13:00 +16°C° 1 mm 3 mps 730 mmHg 88%
14:00 +16°C° 1 mm 3 mps 729 mmHg 89%
15:00 +16°C° 0.4 mm 3 mps 729 mmHg 88%
16:00 +16°C° 0.4 mm 3 mps 729 mmHg 86%
17:00 +16°C° 0.4 mm 2 mps 729 mmHg 85%
18:00 +15°C° 0.4 mm 2 mps 729 mmHg 88%
19:00 +14°C° 0.4 mm 2 mps 729 mmHg 92%
20:00 +13°C° 0.4 mm 2 mps 729 mmHg 95%
21:00 +12°C° 0 mm 2 mps 729 mmHg 96%
22:00 +10°C° 0 mm 2 mps 728 mmHg 97%
23:00 +10°C° 0 mm 2 mps 728 mmHg 97%

21 May, Friday

Time Temperature Precipitation Wind Pressure Humidity
00:00 +10°C° 0 mm 2 mps 728 mmHg 97%
01:00 +9°C° 0 mm 2 mps 728 mmHg 97%
02:00 +9°C° 0 mm 2 mps 728 mmHg 97%
03:00 +9°C° 0.2 mm 2 mps 728 mmHg 97%
04:00 +9°C° 0.2 mm 2 mps 728 mmHg 97%
05:00 +9°C° 0.2 mm 2 mps 728 mmHg 97%
06:00 +9°C° 0.4 mm 3 mps 728 mmHg 97%
07:00 +9°C° 0.4 mm 3 mps 728 mmHg 96%
08:00 +8°C° 0.4 mm 4 mps 729 mmHg 96%
09:00 +8°C° 0.1 mm 4 mps 729 mmHg 96%
10:00 +7°C° 0.1 mm 5 mps 730 mmHg 95%
11:00 +7°C° 0.1 mm 6 mps 731 mmHg 95%
12:00 +7°C° 0.4 mm 6 mps 731 mmHg 94%
13:00 +7°C° 0.4 mm 6 mps 732 mmHg 94%
14:00 +6°C° 0.4 mm 7 mps 733 mmHg 94%
15:00 +7°C° 0.1 mm 6 mps 734 mmHg 92%
16:00 +7°C° 0.1 mm 6 mps 735 mmHg 91%
17:00 +8°C° 0.1 mm 5 mps 736 mmHg 89%
18:00 +8°C° 0 mm 4 mps 736 mmHg 90%
19:00 +8°C° 0 mm 4 mps 736 mmHg 90%
20:00 +9°C° 0 mm 3 mps 737 mmHg 91%
21:00 +8°C° 0 mm 3 mps 737 mmHg 91%
22:00 +8°C° 0 mm 3 mps 737 mmHg 92%
23:00 +7°C° 0 mm 3 mps 738 mmHg 92%

22 May, Saturday

Time Temperature Precipitation Wind Pressure Humidity
00:00 +7°C° 0 mm 3 mps 738 mmHg 92%
01:00 +7°C° 0 mm 3 mps 738 mmHg 92%
02:00 +7°C° 0 mm 2 mps 738 mmHg 93%
03:00 +7°C° 0 mm 3 mps 739 mmHg 93%
04:00 +7°C° 0 mm 3 mps 739 mmHg 93%
05:00 +7°C° 0 mm 3 mps 739 mmHg 93%
06:00 +8°C° 0 mm 3 mps 739 mmHg 84%
07:00 +9°C° 0 mm 3 mps 740 mmHg 75%
08:00 +11°C° 0 mm 3 mps 740 mmHg 66%
09:00 +11°C° 0.1 mm 4 mps 740 mmHg 62%
10:00 +12°C° 0.1 mm 4 mps 740 mmHg 57%
11:00 +13°C° 0.1 mm 4 mps 740 mmHg 52%
12:00 +13°C° 0 mm 4 mps 740 mmHg 54%
13:00 +13°C° 0 mm 4 mps 740 mmHg 56%
14:00 +13°C° 0 mm 4 mps 740 mmHg 59%
15:00 +14°C° 0 mm 3 mps 740 mmHg 58%
16:00 +14°C° 0 mm 3 mps 740 mmHg 57%
17:00 +14°C° 0 mm 3 mps 740 mmHg 57%
18:00 +14°C° 0 mm 2 mps 740 mmHg 63%
19:00 +12°C° 0 mm 2 mps 740 mmHg 69%
20:00 +9°C° 0 mm 2 mps 740 mmHg 76%
21:00 +9°C° 0 mm 2 mps 741 mmHg 77%
22:00 +8°C° 0 mm 2 mps 741 mmHg 79%
23:00 +8°C° 0 mm 2 mps 741 mmHg 80%

23 May, Sunday

Time Temperature Precipitation Wind Pressure Humidity
00:00 +7°C° 0 mm 2 mps 741 mmHg 81%
01:00 +7°C° 0 mm 2 mps 742 mmHg 82%
02:00 +7°C° 0 mm 2 mps 742 mmHg 83%
03:00 +7°C° 0 mm 2 mps 742 mmHg 83%
04:00 +7°C° 0 mm 2 mps 742 mmHg 83%
05:00 +7°C° 0 mm 2 mps 742 mmHg 83%
06:00 +9°C° 0 mm 2 mps 742 mmHg 78%
07:00 +11°C° 0 mm 3 mps 742 mmHg 73%
08:00 +12°C° 0 mm 3 mps 742 mmHg 69%
09:00 +14°C° 0 mm 3 mps 742 mmHg 65%
10:00 +16°C° 0 mm 3 mps 742 mmHg 61%
11:00 +17°C° 0 mm 4 mps 742 mmHg 57%
12:00 +17°C° 0 mm 4 mps 742 mmHg 56%
13:00 +18°C° 0 mm 4 mps 742 mmHg 54%
14:00 +18°C° 0 mm 4 mps 741 mmHg 53%
15:00 +18°C° 0 mm 3 mps 741 mmHg 56%
16:00 +18°C° 0 mm 3 mps 741 mmHg 59%
17:00 +18°C° 0 mm 3 mps 741 mmHg 62%
18:00 +17°C° 0 mm 3 mps 741 mmHg 68%
19:00 +15°C° 0 mm 2 mps 741 mmHg 74%
20:00 +13°C° 0 mm 2 mps 740 mmHg 81%
21:00 +13°C° 0 mm 2 mps 741 mmHg 83%
22:00 +12°C° 0 mm 2 mps 741 mmHg 86%
23:00 +12°C° 0 mm 2 mps 741 mmHg 88%
Show more

We Need Your Consent

Meteoprog and our Service Providers may store and access personal data such as cookies, device identifiers or other similar technologies on your device and process such data to personalise content and ads, as well as provide social media features and to analyse the traffic.

  • Store and/or access information on your device

    Cookies, device identifiers or other information can be stored or accessed on your device for the purposes indicated above.

  • Personalised ads and content, ad and content measurement, audience insights, and products development

    Ads and content can be personalised based on a profile. More data can be added to better personalise ads and content. Ad and content performance can be measured. Insights about the audience who saw the ads and content can be derived. Such data can be used to develop or improve user’s experience, systems and software.

By clicking ‘I Agree’ you will allow the use of indicated cookies, device identifiers, web beacons or other similar technologies. Your settings can be changed in the browser on your device.

For certain purposes, legitimate interests may be relied on, rather than consent. You can read more about this in our Privacy and Cookie Policy.